This is the latest recevied weather packets stored in our database for station/object S56VIL-11. If no packets are shown the sender has not sent any weather packets the latest 10 day(s).
| Time | Temp. | Humidity | Pressure | Rain* | Wind** | Luminosity | Snow |
|---|---|---|---|---|---|---|---|
| 1777902973 | 25° C | 48% | 1029.1 hPa | - | - | - | - |
| 1777902074 | 21.67° C | 48% | 1029.1 hPa | - | - | - | - |
| 1777900273 | 20.56° C | 50% | 1029.6 hPa | - | - | - | - |
| 1777899373 | 19.44° C | 50% | 1029.7 hPa | - | - | - | - |
| 1777898473 | 20.56° C | 50% | 1029.7 hPa | - | - | - | - |
| 1777897573 | 21.11° C | 49% | 1029.7 hPa | - | - | - | - |
| 1777896673 | 21.67° C | 49% | 1029.6 hPa | - | - | - | - |
| 1777895773 | 21.11° C | 49% | 1029.5 hPa | - | - | - | - |
| 1777894873 | 21.11° C | 50% | 1029.8 hPa | - | - | - | - |
| 1777893973 | 20.56° C | 50% | 1029.8 hPa | - | - | - | - |
| 1777893073 | 20.56° C | 50% | 1029.8 hPa | - | - | - | - |
| 1777892173 | 21.11° C | 50% | 1030 hPa | - | - | - | - |
| 1777891273 | 22.22° C | 50% | 1030 hPa | - | - | - | - |
| 1777890373 | 23.89° C | 51% | 1030.2 hPa | - | - | - | - |
| 1777889472 | 24.44° C | 51% | 1030.3 hPa | - | - | - | - |
| 1777888572 | 24.44° C | 51% | 1030.4 hPa | - | - | - | - |
| 1777887672 | 23.33° C | 52% | 1030.3 hPa | - | - | - | - |
| 1777886772 | 25° C | 51% | 1030.3 hPa | - | - | - | - |
| 1777885872 | 25° C | 51% | 1030.3 hPa | - | - | - | - |
| 1777884972 | 24.44° C | 51% | 1030.2 hPa | - | - | - | - |
| 1777884072 | 22.78° C | 51% | 1030.2 hPa | - | - | - | - |
| 1777883172 | 22.22° C | 52% | 1030.1 hPa | - | - | - | - |
| 1777882272 | 19.44° C | 53% | 1030.2 hPa | - | - | - | - |
| 1777881372 | 17.78° C | 53% | 1030.1 hPa | - | - | - | - |
| 1777880472 | 17.22° C | 53% | 1030 hPa | - | - | - | - |
* Rain since midnight (hover to see other rain measurements)
** Current wind speed in m/s (hover to see current wind gust speed)